Погода в Озере Тагарском

Россия / Красноярский край     53°35′55″N   91°47′49″E
темп.,
°C
ветер,
м/с
пор.,
м/с
влажн.,
%
обл.,
%
осадки,
мм/ч
давл.,
гПа
погр.,
м
29 июня, ср
ср2901:00+13вюв11720 0.0 101010
04:00+12вюв11850 0.0 100910
07:00+16ююв22720 0.0 1009194
10:00+21юв22530 0.0 1008713
13:00+24юв22440 0.0 10051273
16:00+26всв22380 0.0 10031170
19:00+26в23480 0.0 1001383
22:00+18в22695 0.0 100112
30 июня, чт
чт3001:00+16в227098 0.0 99911
04:00+15вюв1170100 0.0 99811
07:00+18вюв2268100 0.0 999114
10:00+23вюв2256100 0.0 999385
13:00+28вюв2242100 0.0 998707
16:00+30ююв7639100 0.2 9981266
19:00+19зсз238694 15.1 1002117
22:00+18ююв3387100 0.0 100356
1 июля, пт
пт101:00+16вюв2695100 0.0 1002159
04:00+16юв1194100 0.0 100320
07:00+18ююв118682 0.0 1003170
10:00+21юз1172100 0.0 1003702
13:00+25вюв0155100 0.0 10021254
16:00+26ссв1147100 0.0 10001331
19:00+16с5995100 16.1 1004252
22:00+15зюз3596100 5.7 1008205
2 июля, сб
сб201:00+15юз3687100 8.7 1008150
04:00+13юз228883 0.1 100937
07:00+14зюз25820 0.1 1010248
10:00+19зюз45574 0.0 1009910
13:00+21з254662 0.0 10081600
16:00+22ююз2445100 0.0 10071847
19:00+21зюз0352100 0.0 10071200
22:00+17зюз2254100 0.0 100814
3 июля, вс
вс301:00+14з1164100 0.0 100811
04:00+13зюз1165100 0.0 100811
07:00+15зюз2366100 0.0 1008144
10:00+18юз4559100 0.0 1008941
13:00+21ю354999 0.0 10071843
16:00+22в13435 0.0 10061671
19:00+21всв22546 0.0 1005239
22:00+16в33675 0.0 100525